This is the latest recevied weather packets stored in our database for station/object AA8FM-13. If no packets are shown the sender has not sent any weather packets the latest 1 day(s).
| Time | Temp. | Humidity | Pressure | Rain* | Wind** | Luminosity | Snow |
|---|---|---|---|---|---|---|---|
| 1778043280 | 17.22° C | 71% | 1005.9 hPa | 0 mm | - | 0 W/m² | - |
| 1778042675 | 17.22° C | 69% | 1006.1 hPa | 0 mm | - | 0 W/m² | - |
| 1778042069 | 17.22° C | 70% | 1006.3 hPa | 0 mm | - | 0 W/m² | - |
| 1778041766 | 16.67° C | 74% | 1006.1 hPa | 0 mm | - | 0 W/m² | - |
| 1778041466 | 17.22° C | 76% | 1005.7 hPa | 0 mm | - | 0 W/m² | - |
| 1778041163 | 17.78° C | 70% | 1005.6 hPa | 0 mm | - | 0 W/m² | - |
| 1778040861 | 17.22° C | 64% | 1005.7 hPa | 0 mm | - | 0 W/m² | - |
| 1778040558 | 17.78° C | 71% | 1005.8 hPa | 0 mm | - | 0 W/m² | - |
| 1778040255 | 17.78° C | 64% | 1005.7 hPa | 0 mm | - | 0 W/m² | - |
| 1778039951 | 17.78° C | 69% | 1005.9 hPa | 0 mm | - | 0 W/m² | - |
| 1778039649 | 17.78° C | 65% | 1005.9 hPa | 0 mm | - | 0 W/m² | - |
| 1778039345 | 17.78° C | 68% | 1005.9 hPa | 0 mm | - | 0 W/m² | - |
| 1778039043 | 17.78° C | 67% | 1006.1 hPa | 0 mm | - | 0 W/m² | - |
| 1778038740 | 17.22° C | 67% | 1005.8 hPa | 0 mm | - | 0 W/m² | - |
| 1778038437 | 17.78° C | 68% | 1005.5 hPa | 0 mm | - | 0 W/m² | - |
| 1778038134 | 17.78° C | 64% | 1005.4 hPa | 0 mm | - | 0 W/m² | - |
| 1778037225 | 17.78° C | 66% | 1006.1 hPa | 0 mm | - | 0 W/m² | - |
| 1778036922 | 17.78° C | 66% | 1005.8 hPa | 0 mm | - | 0 W/m² | - |
| 1778036317 | 18.33° C | 67% | 1005.9 hPa | 0 mm | - | 0 W/m² | - |
| 1778036013 | 18.33° C | 62% | 1005.7 hPa | 0 mm | - | 0 W/m² | - |
| 1778035710 | 18.89° C | 63% | 1005.8 hPa | 0 mm | - | 0 W/m² | - |
| 1778035407 | 19.44° C | 58% | 1006.1 hPa | 0 mm | - | 0 W/m² | - |
| 1778035103 | 18.89° C | 59% | 1006.3 hPa | 0 mm | - | 0 W/m² | - |
| 1778034800 | 19.44° C | 59% | 1006 hPa | 0 mm | - | 0 W/m² | - |
| 1778034497 | 19.44° C | 57% | 1005.9 hPa | 0 mm | - | 0 W/m² | - |
* Rain latest hour (hover to see other rain measurements)
** Current wind speed in m/s (hover to see current wind gust speed)